• In Spain
  • List of Countries
  • For 7 days
  • Water Temperature
  • Satellite Maps
  • Weather Map
  • Weather Widgets
  • user-avatar
    Login

    Hourly Weather Biskira

    Today, 20 August, Sunday

    Time Temperature Precipitation Wind Pressure Humidity
    00:00 +38°C° 0 mm 2 mps 752 mmHg 24%
    01:00 +37°C° 0 mm 3 mps 752 mmHg 25%
    02:00 +37°C° 0 mm 3 mps 752 mmHg 27%
    03:00 +36°C° 0 mm 3 mps 752 mmHg 28%
    04:00 +36°C° 0 mm 4 mps 752 mmHg 28%
    05:00 +36°C° 0 mm 4 mps 752 mmHg 29%
    06:00 +36°C° 0 mm 4 mps 752 mmHg 29%
    07:00 +37°C° 0 mm 4 mps 752 mmHg 26%
    08:00 +38°C° 0 mm 4 mps 752 mmHg 23%
    09:00 +41°C° 0 mm 4 mps 753 mmHg 20%
    10:00 +42°C° 0 mm 4 mps 752 mmHg 19%
    11:00 +43°C° 0 mm 4 mps 752 mmHg 18%
    12:00 +44°C° 0 mm 3 mps 752 mmHg 15%
    13:00 +44°C° 0 mm 3 mps 752 mmHg 15%
    14:00 +44°C° 0 mm 3 mps 752 mmHg 15%
    15:00 +45°C° 0 mm 3 mps 751 mmHg 14%
    16:00 +44°C° 0 mm 3 mps 751 mmHg 15%
    17:00 +44°C° 0 mm 3 mps 751 mmHg 15%
    18:00 +43°C° 0 mm 3 mps 751 mmHg 16%
    19:00 +42°C° 0 mm 3 mps 752 mmHg 19%
    20:00 +41°C° 0 mm 4 mps 752 mmHg 22%
    21:00 +40°C° 0 mm 4 mps 752 mmHg 24%
    22:00 +38°C° 0 mm 4 mps 753 mmHg 27%
    23:00 +37°C° 0 mm 4 mps 753 mmHg 30%

    Tomorrow, 21 August, Monday

    Time Temperature Precipitation Wind Pressure Humidity
    00:00 +36°C° 0 mm 4 mps 753 mmHg 33%
    01:00 +36°C° 0 mm 4 mps 753 mmHg 34%
    02:00 +35°C° 0 mm 3 mps 753 mmHg 35%
    03:00 +35°C° 0 mm 3 mps 752 mmHg 36%
    04:00 +35°C° 0 mm 2 mps 753 mmHg 36%
    05:00 +34°C° 0 mm 2 mps 753 mmHg 36%
    06:00 +34°C° 0 mm 2 mps 753 mmHg 36%
    07:00 +35°C° 0 mm 2 mps 753 mmHg 34%
    08:00 +36°C° 0 mm 2 mps 753 mmHg 31%
    09:00 +37°C° 0 mm 3 mps 753 mmHg 29%
    10:00 +38°C° 0 mm 3 mps 753 mmHg 27%
    11:00 +39°C° 0 mm 3 mps 752 mmHg 24%
    12:00 +40°C° 0 mm 3 mps 752 mmHg 22%
    13:00 +42°C° 0 mm 3 mps 751 mmHg 21%
    14:00 +42°C° 0 mm 3 mps 751 mmHg 19%
    15:00 +43°C° 0 mm 3 mps 750 mmHg 18%
    16:00 +42°C° 0 mm 3 mps 751 mmHg 18%
    17:00 +42°C° 0 mm 3 mps 751 mmHg 17%
    18:00 +42°C° 0 mm 3 mps 751 mmHg 17%
    19:00 +40°C° 0 mm 3 mps 751 mmHg 18%
    20:00 +40°C° 0 mm 4 mps 752 mmHg 20%
    21:00 +38°C° 0 mm 4 mps 752 mmHg 21%
    22:00 +37°C° 0 mm 4 mps 752 mmHg 22%
    23:00 +36°C° 0 mm 4 mps 752 mmHg 23%

    Day after tomorrow, 22 August, Tuesday

    Time Temperature Precipitation Wind Pressure Humidity
    00:00 +35°C° 0 mm 4 mps 752 mmHg 24%
    01:00 +35°C° 0 mm 4 mps 752 mmHg 28%
    02:00 +34°C° 0 mm 4 mps 752 mmHg 31%
    03:00 +33°C° 0 mm 3 mps 752 mmHg 35%
    04:00 +33°C° 0 mm 3 mps 752 mmHg 37%
    05:00 +31°C° 0 mm 3 mps 753 mmHg 39%
    06:00 +31°C° 0 mm 3 mps 753 mmHg 42%
    07:00 +33°C° 0 mm 3 mps 753 mmHg 39%
    08:00 +34°C° 0 mm 3 mps 753 mmHg 37%
    09:00 +35°C° 0 mm 3 mps 753 mmHg 34%
    10:00 +36°C° 0 mm 3 mps 753 mmHg 32%
    11:00 +37°C° 0 mm 3 mps 753 mmHg 30%
    12:00 +38°C° 0 mm 3 mps 752 mmHg 27%
    13:00 +38°C° 0 mm 3 mps 752 mmHg 26%
    14:00 +39°C° 0 mm 2 mps 751 mmHg 24%
    15:00 +39°C° 0 mm 2 mps 751 mmHg 23%
    16:00 +39°C° 0 mm 2 mps 751 mmHg 23%
    17:00 +39°C° 0 mm 2 mps 751 mmHg 23%
    18:00 +39°C° 0 mm 2 mps 751 mmHg 22%
    19:00 +38°C° 0 mm 2 mps 751 mmHg 23%
    20:00 +38°C° 0 mm 2 mps 751 mmHg 25%
    21:00 +36°C° 0 mm 1 mps 752 mmHg 26%
    22:00 +36°C° 0 mm 2 mps 752 mmHg 27%
    23:00 +36°C° 0 mm 2 mps 752 mmHg 28%

    23 August, Wednesday

    Time Temperature Precipitation Wind Pressure Humidity
    00:00 +35°C° 0 mm 2 mps 752 mmHg 29%
    01:00 +34°C° 0 mm 3 mps 752 mmHg 32%
    02:00 +33°C° 0 mm 4 mps 752 mmHg 35%
    03:00 +32°C° 0 mm 4 mps 752 mmHg 39%
    04:00 +32°C° 0 mm 4 mps 752 mmHg 43%
    05:00 +30°C° 0 mm 4 mps 752 mmHg 47%
    06:00 +30°C° 0 mm 3 mps 753 mmHg 51%
    07:00 +31°C° 0 mm 3 mps 753 mmHg 48%
    08:00 +33°C° 0 mm 3 mps 753 mmHg 45%
    09:00 +34°C° 0 mm 3 mps 754 mmHg 41%
    10:00 +35°C° 0 mm 3 mps 753 mmHg 38%
    11:00 +36°C° 0 mm 3 mps 753 mmHg 34%
    12:00 +37°C° 0 mm 3 mps 753 mmHg 31%
    13:00 +38°C° 0 mm 3 mps 752 mmHg 29%
    14:00 +38°C° 0 mm 2 mps 752 mmHg 27%
    15:00 +39°C° 0 mm 2 mps 751 mmHg 25%
    16:00 +39°C° 0 mm 2 mps 751 mmHg 25%
    17:00 +39°C° 0 mm 2 mps 751 mmHg 24%
    18:00 +39°C° 0 mm 2 mps 751 mmHg 24%
    19:00 +38°C° 0 mm 2 mps 752 mmHg 25%
    20:00 +38°C° 0 mm 2 mps 752 mmHg 26%
    21:00 +37°C° 0 mm 2 mps 752 mmHg 27%
    22:00 +36°C° 0 mm 2 mps 752 mmHg 28%
    23:00 +36°C° 0 mm 2 mps 752 mmHg 29%

    24 August, Thursday

    Time Temperature Precipitation Wind Pressure Humidity
    00:00 +35°C° 0 mm 2 mps 752 mmHg 30%
    01:00 +34°C° 0 mm 3 mps 752 mmHg 33%
    02:00 +33°C° 0 mm 4 mps 752 mmHg 36%
    03:00 +32°C° 0 mm 5 mps 752 mmHg 40%
    04:00 +32°C° 0 mm 4 mps 753 mmHg 42%
    05:00 +30°C° 0 mm 4 mps 753 mmHg 44%
    06:00 +30°C° 0 mm 4 mps 754 mmHg 47%
    07:00 +32°C° 0 mm 4 mps 754 mmHg 44%
    08:00 +33°C° 0 mm 4 mps 754 mmHg 42%
    09:00 +34°C° 0 mm 4 mps 754 mmHg 39%
    10:00 +35°C° 0 mm 4 mps 754 mmHg 37%
    11:00 +36°C° 0 mm 3 mps 753 mmHg 34%
    12:00 +37°C° 0 mm 3 mps 753 mmHg 32%
    13:00 +38°C° 0 mm 3 mps 752 mmHg 30%
    14:00 +38°C° 0 mm 3 mps 752 mmHg 28%
    15:00 +39°C° 0 mm 2 mps 751 mmHg 26%
    16:00 +39°C° 0 mm 2 mps 751 mmHg 26%
    17:00 +39°C° 0 mm 3 mps 751 mmHg 26%
    18:00 +38°C° 0 mm 3 mps 751 mmHg 26%
    19:00 +38°C° 0 mm 3 mps 752 mmHg 28%
    20:00 +37°C° 0 mm 3 mps 752 mmHg 29%
    21:00 +37°C° 0 mm 3 mps 752 mmHg 31%
    22:00 +36°C° 0 mm 3 mps 752 mmHg 32%
    23:00 +35°C° 0 mm 3 mps 752 mmHg 34%

    25 August, Friday

    Time Temperature Precipitation Wind Pressure Humidity
    00:00 +35°C° 0 mm 4 mps 752 mmHg 36%
    01:00 +34°C° 0 mm 4 mps 752 mmHg 41%
    02:00 +33°C° 0 mm 4 mps 752 mmHg 46%
    03:00 +32°C° 0 mm 5 mps 752 mmHg 52%
    04:00 +30°C° 0 mm 4 mps 753 mmHg 53%
    05:00 +30°C° 0 mm 4 mps 753 mmHg 55%
    06:00 +30°C° 0 mm 3 mps 753 mmHg 57%
    07:00 +30°C° 0 mm 4 mps 753 mmHg 52%
    08:00 +32°C° 0 mm 4 mps 753 mmHg 47%
    09:00 +33°C° 0 mm 4 mps 753 mmHg 43%
    10:00 +34°C° 0 mm 4 mps 753 mmHg 39%
    11:00 +36°C° 0 mm 4 mps 752 mmHg 35%
    12:00 +37°C° 0 mm 4 mps 752 mmHg 32%
    13:00 +37°C° 0 mm 3 mps 751 mmHg 30%
    14:00 +38°C° 0 mm 3 mps 751 mmHg 29%
    15:00 +38°C° 0 mm 3 mps 750 mmHg 27%
    16:00 +38°C° 0 mm 3 mps 750 mmHg 27%
    17:00 +38°C° 0 mm 3 mps 750 mmHg 28%
    18:00 +38°C° 0 mm 3 mps 750 mmHg 28%
    19:00 +37°C° 0 mm 3 mps 751 mmHg 28%
    20:00 +37°C° 0 mm 3 mps 751 mmHg 29%
    21:00 +36°C° 0 mm 3 mps 752 mmHg 29%
    22:00 +36°C° 0 mm 3 mps 751 mmHg 30%
    23:00 +35°C° 0 mm 3 mps 751 mmHg 30%
    Show more